Regional Weather Roundup
Issued by NWS

Home | Current Version | Previous Version | Text Only | Print | Product List | Glossary On
Versions: 1 2 3 4 5 6 7 8 9 10 11 12 13 14 15 16 17 18 19 20 21 22 23 24 25 26 27 28 29 30 31 32 33 34 35 36 37 38 39 40 41 42 43 44 45 46 47 48 49 50
000
ASUS45 KABQ 300910
RWRNM
NEW MEXICO REGIONAL WEATHER ROUNDUP
NATIONAL WEATHER SERVICE ALBUQUERQUE NM
300 AM MDT SUN AUG 30 2015

NOTE: "FAIR" MEANS FEW OR NO CLOUDS BELOW 12,000 FEET AGL WITH NO
       SIGNIFICANT WEATHER OR OBSTRUCTIONS TO VISION.

      THIS PRODUCT IS RELEASED AS TWO VERSIONS.  ONE VERSION NEAR
      THE TOP OF THE HOUR CONTAINING PRELIMINARY DATA FROM ALBUQUERQUE
      AND OTHER STATIONS.  A FINAL VERSION WITH ADDITIONAL DATA IS
      ISSUED ABOUT 10 MINUTES AFTER THE HOUR.

NMZ501-503-504-510>518-301000-
NORTHWEST PLATEAU/NORTHCENTRAL MOUNTAINS

CITY           SKY/WX    TMP DP  RH WIND       PRES   REMARKS
FARMINGTON     CLEAR     69  46  43 E9        30.18S
LOS ALAMOS     PTCLDY    63  48  57 S6        30.35F
SANTA FE       PTCLDY    59  49  69 SE7       30.30F
TAOS           CLEAR     48  32  53 N3        30.37F
ANGEL FIRE     FAIR      37  36  97 CALM      30.45S FOG

$$
NMZ402-403-502-505>509-301000-
WESTCENTRAL MOUNTAINS/SOUTHWEST MOUNTAINS

CITY           SKY/WX    TMP DP  RH WIND       PRES   REMARKS
GALLUP         PTCLDY    62  48  60 NW3       30.27F
GRANTS         CLEAR     54  50  86 SE7       30.31S
SILVER CITY      N/A     63  57  82 N9        30.25F

$$
NMZ407-409-411-412-301000-
SOUTHERN DESERTS

CITY           SKY/WX    TMP DP  RH WIND       PRES   REMARKS
LORDSBURG      FAIR      70  57  64 CALM      30.14F
DEMING         MOCLDY    70  58  65 NW8       30.15F
LAS CRUCES     CLEAR     69  56  63 W7        30.17S
HOLLOMAN AFB   CLEAR     68  58  71 E5        30.12F
ALAMOGORDO     CLEAR     68  55  64 N10       30.14F
T OR C         CLEAR     69  53  56 N5        30.17F

$$
NMZ519>523-301000-
CENTRAL VALLEYS/CENTRAL HIGHLANDS

CITY           SKY/WX    TMP DP  RH WIND       PRES   REMARKS
ALBUQUERQUE    CLEAR     71  50  47 CALM      30.23F
DOUBLE EAGLE   CLEAR     62  50  65 CALM      30.27S
MORIARTY ARPT  FAIR      50  47  87 CALM      30.31F
CLINES CORNERS PTCLDY    56  52  86 SW6       30.33F
BELEN          FAIR      66  51  59 CALM      30.21F
SOCORRO        FAIR      66  52  60 SW3       30.18F

$$
NMZ524>526-539-540-301000-
SOUTHCENTRAL MOUNTAINS

CITY           SKY/WX    TMP DP  RH WIND       PRES   REMARKS
RUIDOSO        CLEAR     55  48  76 MISG      30.34F

$$
NMZ527>531-301000-
NORTHEAST HIGHLANDS/NORTHEAST PLAINS

CITY           SKY/WX    TMP DP  RH WIND       PRES   REMARKS
LAS VEGAS      CLEAR     55  47  74 CALM      30.33F
RATON          CLEAR     55  49  80 N6        30.27F
CLAYTON        CLEAR     61  49  64 W6        30.19F

$$
NMZ532>537-301000-
EASTCENTRAL PLAINS

CITY           SKY/WX    TMP DP  RH WIND       PRES   REMARKS
TUCUMCARI      CLEAR     62  55  77 CALM      30.15F
CANNON AFB     CLEAR     63  54  74 NW6       30.17F
CLOVIS AIRPORT CLEAR     59  54  82 NW6       30.18S

$$
NMZ028-029-538-301000-
SOUTHEAST PLAINS

CITY           SKY/WX    TMP DP  RH WIND       PRES   REMARKS
ROSWELL        CLEAR     66  59  78 CALM      30.13F
ARTESIA        CLEAR     68  59  73 CALM      30.13F
CARLSBAD       NOT AVBL


$$



USA.gov is the U.S. government's official web portal to all federal, state and local government web resources and services.